Jefferson, NC

10:06 PM EDT on October 13, 2019 (GMT -0400)
Ashe County

Weather History for KGEV - June, 2019

Change the Weather History Date:

Thursday, June 13, 2019

  Actual Average Record
Temperature  
Mean Temperature 58 °F -  
Max Temperature 64 °F 77 °F 85 °F (1993)
Min Temperature 51 °F 53 °F 39 °F (1979)
Degree Days  
Heating Degree Days 8    
Growing Degree Days 8 (Base 50)    
Moisture  
Dew Point 48 °F    
Average Humidity 72    
Maximum Humidity 100    
Minimum Humidity 45    
Precipitation  
Precipitation 0.00 in - - ()
Sea Level Pressure  
Sea Level Pressure 29.97 in    
Wind  
Wind Speed 5 mph (West)    
Max Wind Speed 23 mph    
Max Gust Speed 31 mph    
Visibility 8 miles    
Events Fog , Rain    
Averages and records for this station are not official NWS values.
T = Trace of Precipitation, MM = Missing Value Source: NWS Daily Summary

Daily Weather History Graph

Daily Weather History Graph

Search for Another Location

Airport or City:

Astronomy

Jun. 13, 2019 Rise Set
Actual Time 6:07 AM EDT 8:44 PM EDT
Civil Twilight 5:36 AM EDT 9:14 PM EDT
Nautical Twilight 4:58 AM EDT 9:52 PM EDT
Astronomical Twilight 4:16 AM EDT 10:35 PM EDT
Moon 5:04 PM EDT (6/13) 3:43 AM EDT (6/13)
Length of Visible Light 15h 38m
Length of Day
14h 37m
Waxing Gibbous, 85% of the Moon is Illuminated
Jun 13
Waxing Gibbous
Jun 17
Full
Jun 25
Last Quarter
Jul 2
New
Jul 9
First Quarter

Hourly Weather History & Observations

Time (EDT) Temp. Dew Point Humidity Pressure Visibility Wind Dir Wind Speed Gust Speed Precip Events Conditions
12:05 AM 52.2 °F 50.9 °F 95% 30.01 in 7.0 mi Calm Calm - N/A   Overcast
12:25 AM 52.3 °F 50.9 °F 95% 29.99 in 7.0 mi Calm Calm - N/A   Overcast
12:45 AM 51.8 °F 51.3 °F 98% 29.99 in 5.0 mi Calm Calm - N/A   Overcast
1:05 AM 51.8 °F 51.3 °F 98% 29.98 in 2.5 mi Calm Calm - N/A   Overcast
1:25 AM 52.0 °F 51.8 °F 99% 29.97 in 2.5 mi Calm Calm - N/A   Overcast
1:45 AM 51.8 °F 51.8 °F 100% 29.95 in 1.8 mi Calm Calm - N/A   Overcast
2:05 AM 51.8 °F 51.8 °F 100% 29.94 in 1.5 mi Calm Calm - N/A   Overcast
2:25 AM 51.8 °F 51.8 °F 100% 29.93 in 1.8 mi Calm Calm - N/A   Overcast
2:45 AM 52.0 °F 52.0 °F 100% 29.93 in 0.8 mi Calm Calm - N/A   Overcast
3:05 AM 52.0 °F 52.0 °F 100% 29.91 in 0.5 mi Calm Calm - N/A Fog Fog
3:25 AM 52.3 °F 52.3 °F 100% 29.91 in 0.5 mi Calm Calm - N/A Fog Fog
3:45 AM 52.2 °F 52.2 °F 100% 29.90 in 0.5 mi Calm Calm - N/A Fog Fog
4:05 AM 53.6 °F 53.6 °F 100% 29.89 in 1.2 mi Calm Calm - N/A   Overcast
4:25 AM 53.4 °F 53.4 °F 100% 29.89 in 1.8 mi Calm Calm - N/A   Overcast
4:45 AM 54.0 °F 54.0 °F 100% 29.90 in 7.0 mi Calm Calm - N/A   Overcast
5:05 AM 53.8 °F 53.8 °F 100% 29.89 in 7.0 mi Calm Calm - N/A   Overcast
5:25 AM 53.8 °F 53.8 °F 100% 29.90 in 10.0 mi Calm Calm - N/A   Overcast
5:45 AM 53.6 °F 53.6 °F 100% 29.92 in 10.0 mi Calm Calm - N/A   Overcast
6:05 AM 53.6 °F 53.1 °F 98% 29.92 in 10.0 mi Calm Calm - N/A   Overcast
6:25 AM 56.1 °F 52.7 °F 88% 29.92 in 10.0 mi WNW 4.6 mph - N/A   Overcast
6:45 AM 54.0 °F 53.2 °F 97% 29.93 in 10.0 mi North 3.5 mph - N/A   Overcast
7:05 AM 54.9 °F 52.5 °F 92% 29.93 in 10.0 mi NW 6.9 mph - N/A Rain Rain
7:25 AM 56.1 °F 51.6 °F 85% 29.93 in 10.0 mi West 5.8 mph - N/A   Overcast
8:05 AM 56.8 °F 50.9 °F 80% 29.92 in 10.0 mi West 6.9 mph - N/A   Scattered Clouds
8:25 AM 58.5 °F 50.5 °F 75% 29.92 in 10.0 mi West 9.2 mph - N/A   Clear
8:45 AM 59.4 °F 50.4 °F 72% 29.92 in 10.0 mi West 10.4 mph - N/A   Scattered Clouds
9:25 AM 60.1 °F 50.5 °F 71% 29.92 in 10.0 mi West 9.2 mph - N/A   Overcast
9:45 AM 59.5 °F 50.0 °F 71% 29.93 in 10.0 mi West 12.7 mph 18.4 mph N/A   Overcast
10:05 AM 59.5 °F 50.0 °F 71% 29.93 in 10.0 mi West 6.9 mph 25.3 mph N/A   Overcast
10:25 AM 61.2 °F 49.1 °F 65% 29.92 in 10.0 mi WSW 10.4 mph 21.9 mph N/A   Mostly Cloudy
10:45 AM 61.0 °F 47.5 °F 61% 29.93 in 10.0 mi WSW 11.5 mph 17.3 mph N/A   Mostly Cloudy
11:05 AM 62.1 °F 48.4 °F 61% 29.93 in 10.0 mi WSW 12.7 mph 21.9 mph N/A   Mostly Cloudy
11:25 AM 62.8 °F 47.8 °F 58% 29.92 in 10.0 mi West 12.7 mph 19.6 mph N/A   Mostly Cloudy
11:45 AM 62.8 °F 47.8 °F 58% 29.93 in 10.0 mi West 12.7 mph 25.3 mph N/A   Mostly Cloudy
12:05 PM 64.4 °F 47.7 °F 55% 29.93 in 10.0 mi West 15.0 mph 24.2 mph N/A   Mostly Cloudy
12:25 PM 60.1 °F 50.0 °F 69% 29.93 in 10.0 mi West 12.7 mph 20.7 mph N/A Rain Light Rain
12:45 PM 59.7 °F 50.7 °F 72% 29.94 in 10.0 mi West 18.4 mph 29.9 mph N/A   Mostly Cloudy
1:05 PM 59.2 °F 54.5 °F 84% 29.95 in 5.0 mi West 15.0 mph 26.5 mph N/A Rain Light Rain
1:45 PM 61.3 °F 48.7 °F 63% 29.95 in 10.0 mi WSW 15.0 mph 25.3 mph N/A   Mostly Cloudy
2:05 PM 63.3 °F 48.2 °F 58% 29.95 in 10.0 mi West 17.3 mph 24.2 mph N/A   Scattered Clouds
2:25 PM 63.9 °F 47.7 °F 56% 29.95 in 10.0 mi West 18.4 mph 25.3 mph N/A   Scattered Clouds
2:45 PM 63.0 °F 48.2 °F 59% 29.96 in 10.0 mi West 12.7 mph 25.3 mph N/A   Scattered Clouds
3:05 PM 63.1 °F 46.4 °F 54% 29.95 in 10.0 mi West 23.0 mph 31.1 mph N/A   Scattered Clouds
3:25 PM 64.6 °F 43.7 °F 47% 29.96 in 10.0 mi West 18.4 mph 26.5 mph N/A   Scattered Clouds
3:45 PM 64.8 °F 45.1 °F 49% 29.97 in 10.0 mi West 13.8 mph 24.2 mph N/A   Scattered Clouds
4:05 PM 63.5 °F 45.5 °F 52% 29.96 in 10.0 mi West 13.8 mph 18.4 mph N/A   Scattered Clouds
4:25 PM 63.7 °F 43.5 °F 48% 29.97 in 10.0 mi West 18.4 mph 26.5 mph N/A   Mostly Cloudy
4:45 PM 63.1 °F 43.7 °F 49% 29.97 in 10.0 mi West 19.6 mph 27.6 mph N/A   Overcast
5:05 PM 62.8 °F 45.1 °F 53% 29.97 in 10.0 mi West 9.2 mph 21.9 mph N/A   Overcast
5:25 PM 62.4 °F 43.3 °F 50% 29.98 in 10.0 mi West 13.8 mph 21.9 mph N/A   Overcast
6:25 PM 63.1 °F 41.4 °F 45% 29.99 in 10.0 mi West 10.4 mph 25.3 mph N/A   Scattered Clouds
6:45 PM 62.6 °F 41.0 °F 45% 29.99 in 10.0 mi West 10.4 mph 21.9 mph N/A   Scattered Clouds
7:05 PM 61.3 °F 41.2 °F 48% 30.01 in 10.0 mi West 10.4 mph 23.0 mph N/A   Mostly Cloudy
7:25 PM 60.6 °F 41.2 °F 49% 30.02 in 10.0 mi West 15.0 mph 20.7 mph N/A   Mostly Cloudy
7:45 PM 60.6 °F 40.8 °F 48% 30.02 in 10.0 mi WNW 13.8 mph 20.7 mph N/A   Mostly Cloudy
8:05 PM 59.5 °F 41.2 °F 51% 30.03 in 10.0 mi West 9.2 mph 18.4 mph N/A   Scattered Clouds
8:25 PM 59.2 °F 41.7 °F 52% 30.03 in 10.0 mi West 6.9 mph 10.4 mph N/A   Scattered Clouds
8:45 PM 58.3 °F 41.5 °F 54% 30.03 in 10.0 mi SW 5.8 mph - N/A   Scattered Clouds
9:05 PM 58.3 °F 41.7 °F 54% 30.04 in 10.0 mi West 6.9 mph - N/A   Mostly Cloudy
9:25 PM 57.9 °F 41.9 °F 55% 30.05 in 10.0 mi WNW 10.4 mph - N/A   Mostly Cloudy
9:45 PM 57.6 °F 42.1 °F 56% 30.06 in 10.0 mi WNW 13.8 mph 18.4 mph N/A   Mostly Cloudy
10:05 PM 57.2 °F 41.7 °F 56% 30.07 in 10.0 mi West 10.4 mph 16.1 mph N/A   Mostly Cloudy
10:25 PM 57.2 °F 41.7 °F 56% 30.08 in 10.0 mi WNW 4.6 mph - N/A   Overcast
10:45 PM 56.7 °F 41.2 °F 56% 30.09 in 10.0 mi WNW 10.4 mph - N/A   Overcast
11:05 PM 55.8 °F 41.0 °F 58% 30.09 in 10.0 mi WNW 10.4 mph 17.3 mph N/A   Scattered Clouds
11:25 PM 55.6 °F 39.6 °F 55% 30.10 in 10.0 mi WNW 8.1 mph - N/A   Scattered Clouds
11:45 PM 55.4 °F 40.1 °F 56% 30.11 in 10.0 mi West 6.9 mph - N/A   Mostly Cloudy